Regional Weather Roundup
Issued by NWS Little Rock, AR

Home | Current Version | Previous Version | Text Only | Print | Product List | Glossary Off
Versions: 1 2 3 4 5 6 7 8 9 10 11 12 13 14 15 16 17 18 19 20 21 22 23 24 25 26 27

000
ASUS44 KLZK 150605
RWRLZK

WEATHER ROUNDUP FOR ARKANSAS
NATIONAL WEATHER SERVICE LITTLE ROCK AR
100 AM CDT TUE APR 15 2014

NOTE: "FAIR" INDICATES FEW OR NO CLOUDS BELOW 12,000 FEET WITH NO
SIGNIFICANT WEATHER AND/OR OBSTRUCTIONS TO VISIBILITY.

ARZ001-003-010-029-150700-
NORTHWEST ARKANSAS

CITY           SKY/WX    TMP DP  RH WIND       PRES   REMARKS
FAYETTEVILLE   FAIR      29  25  85 CALM      30.19S
6HR MIN TEMP:  29; 6HR MAX TEMP:  41;

FORT SMITH     FAIR      37  27  67 W6        30.22R
6HR MIN TEMP:  36; 6HR MAX TEMP:  47;

HARRISON       FAIR      31  22  69 W5        30.16R WCI  26
6HR MIN TEMP:  31; 6HR MAX TEMP:  38;

BENTONVILLE    FAIR      30  21  69 CALM      30.18F
6HR MIN TEMP:  30; 6HR MAX TEMP:  43;

ROGERS         FAIR      32  22  66 NW3       30.18F
6HR MIN TEMP:  32; 6HR MAX TEMP:  40;

SILOAM SPGS    FAIR      30  18  59 N3        30.20S
6HR MIN TEMP:  30; 6HR MAX TEMP:  43;

HIGHFILL       FAIR      31  22  69 NW5       30.18S WCI  26
6HR MIN TEMP:  30; 6HR MAX TEMP:  41;

$$

ARZ004-005-016-150700-
NORTH CENTRAL ARKANSAS

CITY           SKY/WX    TMP DP  RH WIND       PRES   REMARKS
BATESVILLE     FAIR      37  27  65 NW9G17    30.13R
6HR MIN TEMP:  37; 6HR MAX TEMP:  43;

FLIPPIN        FAIR      36  19  51 NW6       30.16S
6HR MIN TEMP:  36; 6HR MAX TEMP:  39;

MTN HOME       FAIR      33  24  69 NW3       30.15R
6HR MIN TEMP:  33; 6HR MAX TEMP:  39;

$$

ARZ040-041-150700-
WEST CENTRAL ARKANSAS

CITY           SKY/WX    TMP DP  RH WIND       PRES   REMARKS
MENA           FAIR      43  23  45 NW9G18    30.19R
MOUNT IDA      FAIR      38  29  70 CALM      30.15R
6HR MIN TEMP:  38; 6HR MAX TEMP:  42;

$$

ARZ009-017-025-026-028-150700-
NORTHEAST ARKANSAS

CITY           SKY/WX    TMP DP  RH WIND       PRES   REMARKS
CORNING        CLOUDY    39  30  70 N15       30.12R
JONESBORO      CLOUDY    41  29  62 N9G17     30.10R
6HR MIN TEMP:  41; 6HR MAX TEMP:  46;

NEWPORT        CLOUDY    40  30  67 NW16      30.13R
6HR MIN TEMP:  40; 6HR MAX TEMP:  45;

BLYTHEVILLE    CLOUDY    40  33  76 N23G29    30.08R
6HR MIN TEMP:  40; 6HR MAX TEMP:  46; 6HR PCP:  0.04;

$$

ARZ022-023-033-042-044-150700-
CENTRAL ARKANSAS

CITY           SKY/WX    TMP DP  RH WIND       PRES   REMARKS
LITTLE ROCK    FAIR      41  28  60 N15       30.15R
6HR MIN TEMP:  41; 6HR MAX TEMP:  46;

N LITTLE ROCK    N/A     39  31  71 NW12G18   30.15R
6HR MIN TEMP:  39; 6HR MAX TEMP:  44;

JACKSONVILLE   FAIR      40  29  64 NW8       30.14R
6HR MIN TEMP:  40; 6HR MAX TEMP:  45;

SEARCY         FAIR      40  29  65 N12       30.15R
6HR MIN TEMP:  40; 6HR MAX TEMP:  45;

HOT SPRINGS    FAIR      41  27  57 N9G16     30.15R
6HR MIN TEMP:  40; 6HR MAX TEMP:  44; 6HR PCP:  0.07;

RUSSELLVILLE   FAIR      40  25  55 NW6       30.17S
6HR MIN TEMP:  40; 6HR MAX TEMP:  45;

CLINTON        FAIR      39  28  65 NW3       30.17R
$$

ARZ036-150700-
EAST ARKANSAS

CITY           SKY/WX    TMP DP  RH WIND       PRES   REMARKS
WEST MEMPHIS   CLOUDY    41  34  76 N16G23    30.06R
6HR MIN TEMP:  41; 6HR MAX TEMP:  46; 6HR PCP:  0.04;

$$

ARZ050-053-066-070-073-150700-
SOUTHWEST ARKANSAS

CITY           SKY/WX    TMP DP  RH WIND       PRES   REMARKS
ARKADELPHIA    FAIR      41  34  76 NW5       30.17R
6HR MIN TEMP:  41; 6HR MAX TEMP:  47;

CAMDEN         FAIR      37  32  81 MISG      30.16R
TEXARKANA      FAIR      39  33  79 NW8       30.18R
6HR MIN TEMP:  39; 6HR MAX TEMP:  45;

EL DORADO      FAIR      39  34  82 NW7       30.15R
6HR MIN TEMP:  39; 6HR MAX TEMP:  47;

DE QUEEN       FAIR      39  28  64 NW3       30.20R
6HR MIN TEMP:  38; 6HR MAX TEMP:  45;

$$

ARZ056-057-069-150700-
SOUTHEAST ARKANSAS

CITY           SKY/WX    TMP DP  RH WIND       PRES   REMARKS
PINE BLUFF     CLOUDY    42  31  64 N13G23    30.13R
6HR MIN TEMP:  42; 6HR MAX TEMP:  48;

STUTTGART      CLOUDY    41  30  65 N18G28    30.11R
6HR MIN TEMP:  41; 6HR MAX TEMP:  46;

MONTICELLO     CLOUDY    43  32  65 N8G20     30.10R
6HR MIN TEMP:  43; 6HR MAX TEMP:  48;


$$





USA.gov is the U.S. government's official web portal to all federal, state and local government web resources and services.